Location: Brivio
(45.7333°N, 9.4500°E)
Time: 10:42:29
(UTC+00:00)

Cosmos 1939 Rocket - Pass Details

Date: 18 October 2019
Orbit: 533 x 584 km, 97.4° (Epoch: 21 November)

Event Time Altitude Azimuth Distance (km) Brightness Sun altitude
Exits shadow 17:52:42 - 153° (SSE) 2,230 5.6 -14.8°
Reaches altitude 10° 17:53:40 10° 150° (SSE) 1,833 5.2 -15.0°
Maximum altitude 17:57:32 54° 73° (ENE) 689 2.9 -15.7°
Drops below altitude 10° 18:01:30 10° 356° (N) 1,878 5.6 -16.4°
Sets 18:03:42 0° 352° (N) 2,789 6.6 -16.7°
